Location: Bluff Heights
(33.7692°N, 118.1592°W)
Time: 11:27:56
(UTC+00:00)

First-Move - Pass Details

Date: 02 October 2021
Orbit: 574 x 666 km, 97.6° (Epoch: 27 October)

Event Time Altitude Azimuth Distance (km) Brightness Sun altitude
Rises 12:57:04 0° 1° (N) 2,822 ? -11.4°
Reaches altitude 10° 12:59:23 10° 352° (N) 1,907 ? -10.9°
Maximum altitude 13:03:07 35° 287° (WNW) 951 ? -10.2°
Drops below altitude 10° 13:06:48 10° 221° (SW) 1,876 ? -9.4°
Sets 13:09:04 0° 213° (SSW) 2,768 ? -8.9°
